Back to catalog

OPS 9454

AliveMilitaryMEO
NORAD 10941·PAYLOAD·🇺🇸 United States

Launched Jun 10, 1978 from Cape Canaveral Space Force Station

Loading…

Next Passes (next 24 hours)

TLE

FreshSource: Mike McCants

Epoch: Sep 15, 2026, 18:04 UTC

1 10941U 78058A   26258.75332926  .00000000  00000-0  00000-0 0    06
2 10941  10.6700  17.1086 1501201  67.3268 307.8434  1.00107171  4580

Track OPS 9454 in real time with AllMySat

Download on the App Store